Date String (YYYY-MM-DD hh:mm:ss) UTC,Instrument flags,absolute air pressure of the measurement (hPa),sample flow rate (lpm),inlet stack bypass flow (lpm),air temperature of the measurement (°C),ambient temperature measured by the external sensor (°C),aerosol sample conditioner tube jacket temperature (°C),OPC LED temperature (°C),internal box temperature (°C),relative humidity of the measurement (%),span deviation,mass concentration of particles derived from Lorenz-Mie calculation of OPC scattering (μg/m³),mass concentration of particles derived from Lorenz-Mie calculation of OPC scattering (μg/m³),mass concentration of particles derived from Lorenz-Mie calculation of OPC scattering (μg/m³)
DateTimeUTC,F1_M11,P_M11,Q1_M11,Q2_M11,T1_M11,T2_M11,T3_M11,T4_M11,T5_M11,U1_M11,ZSPAN_M11,X0_M11,X2_M11,X1_M11
2023-12-19 23:00:00,SystemResetWarning,0825.6,4.99,000.00,025.7,024.9,000.0,033.9,027.1,13.3,0000.0,0001.69,0000.75,0000.46
2023-12-19 23:01:00,SystemResetWarning,0825.6,5.00,000.00,025.7,024.9,000.0,033.9,027.1,13.2,0000.0,0001.65,0000.73,0000.45
2023-12-19 23:02:00,SystemResetWarning,0825.6,5.02,000.00,025.7,024.9,000.0,033.9,027.1,13.1,0000.0,0001.54,0000.68,0000.45
2023-12-19 23:03:00,SystemResetWarning,0825.6,5.00,000.00,025.7,024.9,000.0,033.9,027.1,13.1,0000.0,0001.50,0000.67,0000.44
2023-12-19 23:04:00,SystemResetWarning,0825.6,4.99,000.00,025.7,024.9,000.0,033.9,027.1,13.1,0000.0,0001.43,0000.65,0000.44
2023-12-19 23:05:00,SystemResetWarning,0825.6,5.00,000.00,025.7,025.0,000.0,033.9,027.2,13.1,0000.0,0001.36,0000.61,0000.44
2023-12-19 23:06:00,SystemResetWarning,0825.6,4.99,000.00,025.7,025.0,000.0,033.9,027.2,13.2,0000.0,0001.44,0000.61,0000.44
2023-12-19 23:07:00,SystemResetWarning,0825.7,4.99,000.00,025.8,025.0,000.0,034.0,027.2,13.4,0000.0,0001.53,0000.63,0000.44
2023-12-19 23:08:00,SystemResetWarning,0825.6,5.01,000.00,025.8,025.0,000.0,034.0,027.2,13.5,0000.0,0001.43,0000.63,0000.44
2023-12-19 23:09:00,SystemResetWarning,0825.7,5.01,000.00,025.8,025.0,000.0,034.0,027.2,13.6,0000.0,0001.41,0000.63,0000.44
2023-12-19 23:10:00,SystemResetWarning,0825.7,5.01,000.00,025.8,025.0,000.0,034.0,027.2,13.5,0000.0,0001.35,0000.62,0000.43
2023-12-19 23:11:00,SystemResetWarning,0825.6,4.97,000.00,025.8,023.6,000.0,034.0,027.3,13.6,0000.0,0001.14,0000.59,0000.43
2023-12-19 23:12:00,SystemResetWarning,0825.7,5.01,000.00,025.7,022.1,000.0,033.9,027.1,13.6,0000.0,0001.02,0000.59,0000.43
2023-12-19 23:13:00,SystemResetWarning,0825.6,5.01,000.00,025.6,022.0,000.0,033.9,026.7,13.6,0000.0,0001.11,0000.61,0000.42
2023-12-19 23:14:00,SystemResetWarning,0825.7,5.00,000.00,025.5,022.3,000.0,033.9,026.4,13.7,0000.0,0001.10,0000.60,0000.42
2023-12-19 23:15:00,SystemResetWarning,0825.7,5.00,000.00,025.4,022.7,000.0,033.8,026.5,13.8,0000.0,0001.06,0000.58,0000.41
2023-12-19 23:16:00,SystemResetWarning,0825.7,5.00,000.00,025.3,023.0,000.0,033.8,026.5,13.9,0000.0,0001.10,0000.59,0000.40
2023-12-19 23:17:00,SystemResetWarning,0825.7,4.99,000.00,025.3,023.3,000.0,033.7,026.5,13.9,0000.0,0001.09,0000.60,0000.40
2023-12-19 23:18:00,SystemResetWarning,0825.7,5.00,000.00,025.3,023.5,000.0,033.7,026.5,13.9,0000.0,0001.05,0000.59,0000.39
2023-12-19 23:19:00,SystemResetWarning,0825.7,5.00,000.00,025.3,023.7,000.0,033.7,026.6,13.9,0000.0,0001.51,0000.56,0000.37
2023-12-19 23:20:00,SystemResetWarning,0825.7,5.00,000.00,025.3,023.9,000.0,033.7,026.6,13.9,0000.0,0001.53,0000.55,0000.37
2023-12-19 23:21:00,SystemResetWarning,0825.7,5.01,000.00,025.3,024.0,000.0,033.7,026.6,14.0,0000.0,0001.53,0000.55,0000.37
2023-12-19 23:22:00,SystemResetWarning,0825.7,4.99,000.00,025.3,024.1,000.0,033.7,026.7,14.0,0000.0,0001.60,0000.58,0000.37
2023-12-19 23:23:00,SystemResetWarning,0825.8,5.00,000.00,025.3,024.2,000.0,033.7,026.7,14.0,0000.0,0001.73,0000.60,0000.37
2023-12-19 23:24:00,SystemResetWarning,0825.7,5.00,000.00,025.3,024.3,000.0,033.7,026.7,14.0,0000.0,0001.74,0000.60,0000.36
2023-12-19 23:25:00,SystemResetWarning,0825.7,5.00,000.00,025.4,024.3,000.0,033.7,026.7,14.0,0000.0,0001.78,0000.62,0000.36
2023-12-19 23:26:00,SystemResetWarning,0825.7,5.00,000.00,025.4,024.4,000.0,033.7,026.8,13.8,0000.0,0001.85,0000.64,0000.36
2023-12-19 23:27:00,SystemResetWarning,0825.8,5.00,000.00,025.4,024.4,000.0,033.7,026.8,13.8,0000.0,0001.85,0000.64,0000.35
2023-12-19 23:28:00,SystemResetWarning,0825.7,4.99,000.00,025.4,024.5,000.0,033.7,026.8,13.8,0000.0,0001.84,0000.64,0000.35
2023-12-19 23:29:00,SystemResetWarning,0825.7,5.01,000.00,025.4,024.5,000.0,033.7,026.9,13.7,0000.0,0001.74,0000.62,0000.36
2023-12-19 23:30:00,SystemResetWarning,0825.8,5.01,000.00,025.4,024.5,000.0,033.7,026.9,13.7,0000.0,0001.15,0000.61,0000.36
2023-12-19 23:31:00,SystemResetWarning,0825.7,4.99,000.00,025.5,024.6,000.0,033.7,026.9,13.7,0000.0,0002.06,0000.62,0000.36
2023-12-19 23:32:00,SystemResetWarning,0825.7,4.99,000.00,025.5,024.6,000.0,033.7,026.9,13.6,0000.0,0003.01,0000.64,0000.36
2023-12-19 23:33:00,SystemResetWarning,0825.8,5.00,000.00,025.5,024.6,000.0,033.7,026.9,13.6,0000.0,0003.17,0000.63,0000.36
2023-12-19 23:34:00,SystemResetWarning,0825.8,5.01,000.00,025.5,024.6,000.0,033.7,026.9,13.6,0000.0,0003.12,0000.60,0000.36
2023-12-19 23:35:00,SystemResetWarning,0825.8,5.01,000.00,025.5,024.6,000.0,033.7,026.9,13.5,0000.0,0003.27,0000.59,0000.36
2023-12-19 23:36:00,SystemResetWarning,0825.8,4.99,000.00,025.5,024.7,000.0,033.8,027.0,13.5,0000.0,0003.38,0000.59,0000.37
2023-12-19 23:37:00,SystemResetWarning,0825.8,4.99,000.00,025.5,024.7,000.0,033.8,027.0,13.4,0000.0,0003.39,0000.60,0000.37
2023-12-19 23:38:00,SystemResetWarning,0825.8,5.00,000.00,025.6,024.7,000.0,033.8,027.0,13.3,0000.0,0003.44,0000.60,0000.37
2023-12-19 23:39:00,SystemResetWarning,0825.9,5.01,000.00,025.6,024.7,000.0,033.8,027.0,13.2,0000.0,0003.42,0000.59,0000.37
2023-12-19 23:40:00,SystemResetWarning,0825.9,5.01,000.00,025.6,024.7,000.0,033.8,027.1,13.3,0000.0,0003.51,0000.62,0000.37
2023-12-19 23:41:00,SystemResetWarning,0825.9,5.00,000.00,025.6,024.7,000.0,033.8,027.1,13.3,0000.0,0003.60,0000.65,0000.37
2023-12-19 23:42:00,SystemResetWarning,0825.9,5.00,000.00,025.6,024.8,000.0,033.8,027.0,13.3,0000.0,0003.16,0000.64,0000.37
2023-12-19 23:43:00,SystemResetWarning,0825.9,4.99,000.00,025.6,024.8,000.0,033.8,027.1,13.2,0000.0,0001.77,0000.62,0000.37
2023-12-19 23:44:00,SystemResetWarning,0825.9,5.00,000.00,025.6,024.8,000.0,033.9,027.1,13.1,0000.0,0001.54,0000.60,0000.36
2023-12-19 23:45:00,SystemResetWarning,0825.9,5.00,000.00,025.7,024.8,000.0,033.9,027.1,13.1,0000.0,0001.61,0000.61,0000.36
2023-12-19 23:46:00,SystemResetWarning,0826.0,5.00,000.00,025.7,024.8,000.0,033.9,027.1,13.1,0000.0,0001.44,0000.61,0000.35
2023-12-19 23:47:00,SystemResetWarning,0825.9,5.00,000.00,025.7,024.8,000.0,033.9,027.2,13.1,0000.0,0001.40,0000.61,0000.35
2023-12-19 23:48:00,SystemResetWarning,0825.9,5.00,000.00,025.7,024.8,000.0,033.9,027.1,13.0,0000.0,0001.42,0000.62,0000.35
2023-12-19 23:49:00,SystemResetWarning,0825.9,5.01,000.00,025.7,024.8,000.0,033.9,027.2,13.1,0000.0,0001.73,0000.68,0000.36
2023-12-19 23:50:00,SystemResetWarning,0825.9,5.01,000.00,025.7,024.8,000.0,033.9,027.2,13.0,0000.0,0002.17,0000.70,0000.36
2023-12-19 23:51:00,SystemResetWarning,0825.9,4.99,000.00,025.7,024.8,000.0,033.9,027.2,13.0,0000.0,0002.15,0000.66,0000.35
2023-12-19 23:52:00,SystemResetWarning,0825.9,4.99,000.00,025.7,024.8,000.0,033.9,027.1,12.8,0000.0,0002.11,0000.64,0000.35
2023-12-19 23:53:00,SystemResetWarning,0825.9,5.02,000.00,025.7,024.8,000.0,034.0,027.2,12.8,0000.0,0002.08,0000.63,0000.35
2023-12-19 23:54:00,SystemResetWarning,0825.9,5.00,000.00,025.7,024.9,000.0,034.0,027.2,12.8,0000.0,0002.02,0000.61,0000.35
2023-12-19 23:55:00,SystemResetWarning,0825.9,5.00,000.00,025.8,024.9,000.0,034.0,027.2,12.8,0000.0,0002.07,0000.63,0000.35
2023-12-19 23:56:00,SystemResetWarning,0825.9,4.99,000.00,025.8,024.9,000.0,034.0,027.2,12.9,0000.0,0001.99,0000.62,0000.36
2023-12-19 23:57:00,SystemResetWarning,0825.9,4.99,000.00,025.8,024.9,000.0,034.0,027.2,12.9,0000.0,0001.94,0000.62,0000.36
2023-12-19 23:58:00,SystemResetWarning,0825.9,5.00,000.00,025.8,024.9,000.0,034.0,027.2,12.8,0000.0,0001.82,0000.60,0000.37
2023-12-19 23:59:00,SystemResetWarning,0825.9,5.01,000.00,025.8,024.9,000.0,034.0,027.2,12.8,0000.0,0001.71,0000.56,0000.37
